WBANNO,USDM_WEEK,LONGITUDE,LATITUDE,SMVWC_5_CM_MEAN,SMANOM_5_CM_MEAN,SMPERC_5_CM_30COUNTS,SMPERC_5_CM_70COUNTS,SMVWC_10_CM_MEAN,SMANOM_10_CM_MEAN,SMPERC_10_CM_30COUNTS,SMPERC_10_CM_70COUNTS,SMVWC_20_CM_MEAN,SMANOM_20_CM_MEAN,SMPERC_20_CM_30COUNTS,SMPERC_20_CM_70COUNTS,SMVWC_50_CM_MEAN,SMANOM_50_CM_MEAN,SMPERC_50_CM_30COUNTS,SMPERC_50_CM_70COUNTS,SMVWC_100_CM_MEAN,SMANOM_100_CM_MEAN,SMPERC_100_CM_30COUNTS,SMPERC_100_CM_70COUNTS,SMVWC_TOP_CM_MEAN,SMANOM_TOP_CM_MEAN,SMPERC_TOP_CM_30COUNTS,SMPERC_TOP_CM_70COUNTS,SMVWC_COLUMN_CM_MEAN,SMANOM_COLUMN_CM_MEAN,SMPERC_COLUMN_CM_30COUNTS,SMPERC_COLUMN_CM_70COUNTS
54851,20090711,-81.78,40.37,,,,,,,,,,,,,,,,,,,,,,,,,,,,
54851,20090712,-81.78,40.37,,,,,,,,,,,,,,,,,,,,,,,,,,,,
54851,20090713,-81.78,40.37,,,,,,,,,,,,,,,,,,,,,,,,,,,,
54851,20090714,-81.78,40.37,,,,,,,,,,,,,,,,,,,,,,,,,,,,
54851,20090715,-81.78,40.37,,,,,,,,,,,,,,,,,,,,,,,,,,,,
54851,20090716,-81.78,40.37,0.083,-0.75,1,0,0.115,-0.76,1,0,0.143,-0.85,1,0,0.25,-0.88,1,0,0.189,-1.07,1,0,0.099,-0.75,1,0,0.156,-0.84,1,0
54851,20090717,-81.78,40.37,0.082,-0.75,1,0,0.114,-0.76,1,0,0.143,-0.85,1,0,0.249,-0.87,1,0,0.189,-1.05,1,0,0.098,-0.75,1,0,0.155,-0.83,1,0
54851,20090718,-81.78,40.37,0.096,-0.68,0.905,0,0.121,-0.72,0.905,0,0.142,-0.84,1,0,0.249,-0.85,1,0,0.19,-1.01,1,0,0.108,-0.69,0.905,0,0.16,-0.8,0.994,0
54851,20090719,-81.78,40.37,0.112,-0.59,0.762,0,0.13,-0.67,0.786,0,0.142,-0.83,1,0,0.249,-0.82,1,0,0.191,-0.98,1,0,0.121,-0.63,0.762,0,0.165,-0.76,0.994,0
54851,20090720,-81.78,40.37,0.124,-0.53,0.619,0,0.137,-0.63,0.786,0,0.142,-0.83,1,0,0.249,-0.8,1,0,0.191,-0.94,1,0,0.131,-0.58,0.631,0,0.168,-0.73,0.994,0
54851,20090721,-81.78,40.37,0.134,-0.47,0.476,0,0.143,-0.6,0.786,0,0.142,-0.82,1,0,0.248,-0.77,1,0,0.19,-0.91,1,0,0.138,-0.53,0.613,0,0.171,-0.7,0.994,0
54851,20090722,-81.78,40.37,0.142,-0.43,0.429,0,0.148,-0.56,0.786,0,0.142,-0.81,1,0,0.248,-0.75,1,0,0.19,-0.88,1,0,0.145,-0.49,0.613,0,0.174,-0.67,0.994,0
54851,20090723,-81.78,40.37,0.159,-0.34,0.375,0.03,0.156,-0.51,0.738,0,0.142,-0.8,1,0,0.248,-0.72,1,0,0.189,-0.84,1,0,0.157,-0.43,0.56,0,0.179,-0.63,0.946,0
54851,20090724,-81.78,40.37,0.188,-0.2,0.232,0.03,0.171,-0.43,0.595,0,0.143,-0.79,1,0,0.248,-0.7,1,0,0.189,-0.81,1,0,0.179,-0.31,0.417,0,0.188,-0.58,0.804,0
54851,20090725,-81.78,40.37,0.194,-0.16,0.185,0.03,0.175,-0.39,0.548,0,0.145,-0.77,1,0,0.248,-0.67,1,0,0.188,-0.78,1,0,0.185,-0.27,0.369,0,0.19,-0.55,0.714,0
54851,20090726,-81.78,40.37,0.196,-0.14,0.185,0.03,0.177,-0.37,0.524,0,0.147,-0.76,1,0,0.248,-0.65,1,0,0.187,-0.75,1,0,0.187,-0.24,0.369,0,0.191,-0.53,0.685,0
54851,20090727,-81.78,40.37,0.2,-0.11,0.185,0.03,0.18,-0.36,0.429,0,0.148,-0.74,1,0,0.248,-0.63,1,0,0.187,-0.72,1,0,0.19,-0.22,0.357,0,0.193,-0.51,0.685,0
54851,20090728,-81.78,40.37,0.203,-0.09,0.185,0.03,0.183,-0.34,0.417,0,0.15,-0.73,1,0,0.249,-0.62,1,0,0.186,-0.7,1,0,0.193,-0.2,0.286,0,0.194,-0.5,0.685,0
54851,20090729,-81.78,40.37,0.206,-0.07,0.167,0.03,0.185,-0.33,0.411,0,0.152,-0.72,1,0,0.249,-0.6,1,0,0.186,-0.67,1,0,0.196,-0.18,0.274,0,0.196,-0.48,0.679,0
54851,20090730,-81.78,40.37,0.226,0.05,0.077,0.143,0.203,-0.2,0.315,0.089,0.164,-0.64,0.893,0,0.25,-0.59,1,0,0.185,-0.65,1,0,0.215,-0.06,0.185,0.137,0.206,-0.42,0.583,0
54851,20090731,-81.78,40.37,0.229,0.09,0.077,0.232,0.21,-0.14,0.315,0.113,0.178,-0.55,0.75,0,0.25,-0.58,1,0,0.185,-0.63,1,0,0.22,-0.01,0.185,0.22,0.21,-0.38,0.583,0
54851,20090801,-81.78,40.37,0.242,0.19,0.077,0.375,0.223,-0.04,0.315,0.19,0.191,-0.45,0.607,0,0.251,-0.56,1,0,0.185,-0.61,1,0,0.233,0.09,0.185,0.363,0.218,-0.33,0.536,0
54851,20090802,-81.78,40.37,0.256,0.29,0.077,0.494,0.236,0.07,0.315,0.274,0.204,-0.36,0.464,0,0.252,-0.55,1,0,0.185,-0.6,1,0,0.246,0.19,0.185,0.458,0.227,-0.28,0.423,0
54851,20090803,-81.78,40.37,0.27,0.39,0.077,0.601,0.25,0.18,0.268,0.304,0.217,-0.26,0.321,0,0.252,-0.54,1,0,0.185,-0.58,1,0,0.26,0.29,0.185,0.524,0.235,-0.22,0.28,0
54851,20090804,-81.78,40.37,0.282,0.46,0.077,0.601,0.261,0.27,0.137,0.304,0.23,-0.17,0.179,0,0.253,-0.53,1,0,0.184,-0.57,1,0,0.271,0.37,0.131,0.524,0.242,-0.18,0.137,0
54851,20090805,-81.78,40.37,0.292,0.53,0,0.601,0.271,0.34,0,0.304,0.241,-0.09,0.036,0,0.254,-0.53,1,0,0.185,-0.56,1,0,0.282,0.44,0,0.524,0.249,-0.13,0,0
54851,20090806,-81.78,40.37,0.275,0.43,0,0.458,0.262,0.28,0,0.214,0.24,-0.09,0,0,0.255,-0.52,1,0,0.185,-0.55,1,0,0.268,0.36,0,0.387,0.243,-0.16,0,0
54851,20090807,-81.78,40.37,0.26,0.34,0,0.369,0.254,0.22,0,0.19,0.237,-0.11,0,0,0.255,-0.51,1,0,0.185,-0.54,1,0,0.257,0.28,0,0.304,0.238,-0.18,0.06,0
54851,20090808,-81.78,40.37,0.24,0.21,0,0.226,0.242,0.13,0,0.113,0.231,-0.14,0.077,0,0.255,-0.51,1,0,0.185,-0.53,1,0,0.241,0.17,0,0.161,0.231,-0.23,0.202,0
54851,20090809,-81.78,40.37,0.219,0.07,0.042,0.107,0.228,0.03,0.048,0.03,0.225,-0.19,0.22,0,0.255,-0.51,1,0,0.185,-0.53,1,0,0.224,0.05,0.03,0.065,0.223,-0.27,0.345,0
54851,20090810,-81.78,40.37,0.199,-0.06,0.185,0,0.214,-0.08,0.19,0,0.217,-0.24,0.363,0,0.256,-0.5,1,0,0.185,-0.52,1,0,0.207,-0.08,0.173,0,0.214,-0.32,0.488,0
54851,20090811,-81.78,40.37,0.194,-0.08,0.232,0.054,0.21,-0.1,0.238,0.018,0.212,-0.27,0.417,0,0.256,-0.5,1,0,0.185,-0.51,1,0,0.202,-0.1,0.22,0.024,0.212,-0.34,0.542,0
54851,20090812,-81.78,40.37,0.2,-0.01,0.232,0.149,0.211,-0.09,0.238,0.018,0.21,-0.29,0.417,0,0.256,-0.5,1,0,0.185,-0.51,1,0,0.205,-0.06,0.22,0.054,0.213,-0.33,0.542,0
54851,20090813,-81.78,40.37,0.204,0.04,0.232,0.185,0.211,-0.07,0.238,0.018,0.208,-0.3,0.44,0,0.257,-0.49,1,0,0.185,-0.5,1,0,0.208,-0.02,0.22,0.054,0.213,-0.32,0.542,0
54851,20090814,-81.78,40.37,0.206,0.07,0.232,0.185,0.211,-0.06,0.238,0.018,0.207,-0.31,0.583,0,0.257,-0.48,1,0,0.186,-0.5,1,0,0.209,0,0.22,0.054,0.213,-0.32,0.571,0
54851,20090815,-81.78,40.37,0.207,0.09,0.232,0.185,0.21,-0.06,0.238,0.018,0.205,-0.32,0.649,0,0.258,-0.48,1,0,0.186,-0.49,1,0,0.208,0.01,0.22,0.054,0.213,-0.32,0.571,0
54851,20090816,-81.78,40.37,0.205,0.1,0.196,0.185,0.207,-0.06,0.286,0.018,0.203,-0.34,0.649,0,0.258,-0.47,1,0,0.186,-0.49,1,0,0.206,0.01,0.268,0.054,0.212,-0.33,0.571,0
54851,20090817,-81.78,40.37,0.203,0.09,0.179,0.185,0.204,-0.08,0.286,0.018,0.201,-0.35,0.649,0,0.259,-0.46,1,0,0.186,-0.48,1,0,0.204,0,0.268,0.054,0.211,-0.34,0.571,0
54851,20090818,-81.78,40.37,0.189,-0.02,0.274,0.131,0.193,-0.18,0.381,0,0.195,-0.4,0.738,0,0.259,-0.45,1,0,0.186,-0.48,1,0,0.191,-0.11,0.363,0.03,0.204,-0.39,0.661,0
54851,20090819,-81.78,40.37,0.167,-0.19,0.417,0.036,0.179,-0.3,0.524,0,0.187,-0.46,0.881,0,0.259,-0.44,1,0,0.186,-0.48,1,0,0.173,-0.26,0.506,0,0.196,-0.46,0.804,0
54851,20090820,-81.78,40.37,0.165,-0.18,0.452,0.107,0.175,-0.32,0.56,0,0.181,-0.52,1,0,0.259,-0.44,1,0,0.186,-0.48,1,0,0.17,-0.27,0.542,0.089,0.193,-0.47,0.839,0
54851,20090821,-81.78,40.37,0.17,-0.12,0.452,0.226,0.175,-0.31,0.56,0,0.178,-0.55,1,0,0.259,-0.43,1,0,0.186,-0.47,1,0,0.172,-0.23,0.542,0.119,0.193,-0.46,0.75,0
54851,20090822,-81.78,40.37,0.178,-0.03,0.452,0.327,0.176,-0.28,0.56,0,0.175,-0.57,1,0,0.259,-0.43,1,0,0.186,-0.47,1,0,0.177,-0.17,0.542,0.143,0.195,-0.45,0.607,0
54851,20090823,-81.78,40.37,0.185,0.04,0.446,0.327,0.178,-0.25,0.464,0,0.173,-0.57,1,0,0.259,-0.42,1,0,0.185,-0.47,1,0,0.181,-0.12,0.464,0.143,0.196,-0.43,0.589,0
54851,20090824,-81.78,40.37,0.191,0.11,0.321,0.327,0.18,-0.22,0.321,0,0.173,-0.57,1,0,0.259,-0.42,1,0,0.185,-0.47,1,0,0.185,-0.07,0.321,0.143,0.197,-0.41,0.589,0
54851,20090825,-81.78,40.37,0.196,0.17,0.179,0.327,0.182,-0.18,0.274,0,0.173,-0.57,1,0,0.258,-0.42,1,0,0.185,-0.47,1,0,0.189,-0.01,0.179,0.143,0.199,-0.4,0.589,0
54851,20090826,-81.78,40.37,0.2,0.21,0.119,0.327,0.184,-0.15,0.274,0,0.173,-0.56,1,0,0.258,-0.42,1,0,0.184,-0.47,1,0,0.192,0.03,0.149,0.143,0.2,-0.39,0.589,0
54851,20090827,-81.78,40.37,0.186,0.09,0.226,0.22,0.175,-0.23,0.381,0,0.172,-0.56,1,0,0.258,-0.42,1,0,0.184,-0.46,1,0,0.18,-0.07,0.256,0.054,0.195,-0.43,0.696,0
54851,20090828,-81.78,40.37,0.168,-0.06,0.363,0.107,0.166,-0.3,0.518,0.006,0.17,-0.57,1,0,0.257,-0.41,1,0,0.184,-0.46,1,0,0.167,-0.19,0.393,0.03,0.189,-0.47,0.833,0
54851,20090829,-81.78,40.37,0.182,0.07,0.363,0.149,0.182,-0.13,0.518,0.149,0.182,-0.45,0.857,0,0.258,-0.39,0.935,0,0.184,-0.45,1,0,0.182,-0.03,0.393,0.149,0.198,-0.4,0.833,0
54851,20090830,-81.78,40.37,0.197,0.21,0.363,0.292,0.198,0.03,0.518,0.292,0.195,-0.32,0.714,0,0.26,-0.37,0.798,0,0.183,-0.46,1,0,0.198,0.12,0.393,0.292,0.207,-0.32,0.708,0
54851,20090831,-81.78,40.37,0.209,0.32,0.363,0.435,0.212,0.17,0.518,0.435,0.206,-0.2,0.571,0,0.262,-0.34,0.655,0,0.183,-0.46,1,0,0.211,0.25,0.393,0.435,0.214,-0.25,0.565,0
54851,20090901,-81.78,40.37,0.221,0.43,0.363,0.577,0.225,0.3,0.423,0.577,0.216,-0.09,0.429,0,0.264,-0.32,0.512,0,0.183,-0.47,1,0,0.223,0.37,0.393,0.577,0.222,-0.18,0.423,0
54851,20090902,-81.78,40.37,0.231,0.53,0.28,0.619,0.237,0.42,0.28,0.625,0.226,0.01,0.286,0,0.265,-0.29,0.369,0,0.182,-0.48,1,0,0.234,0.48,0.28,0.643,0.228,-0.12,0.28,0
54851,20090903,-81.78,40.37,0.241,0.63,0.137,0.619,0.247,0.53,0.137,0.625,0.234,0.1,0.143,0,0.267,-0.27,0.232,0,0.182,-0.49,1,0,0.244,0.59,0.137,0.643,0.234,-0.07,0.137,0
54851,20090904,-81.78,40.37,0.249,0.7,0,0.613,0.256,0.62,0,0.619,0.242,0.18,0,0,0.268,-0.24,0.089,0,0.182,-0.5,1,0,0.252,0.67,0,0.637,0.239,-0.02,0,0
54851,20090905,-81.78,40.37,0.223,0.48,0,0.47,0.237,0.45,0,0.476,0.234,0.11,0,0,0.268,-0.24,0.054,0,0.182,-0.52,1,0,0.23,0.47,0,0.494,0.229,-0.11,0,0
54851,20090906,-81.78,40.37,0.2,0.28,0,0.327,0.22,0.3,0,0.333,0.224,0.02,0,0,0.267,-0.24,0.119,0,0.182,-0.54,1,0,0.21,0.3,0,0.351,0.219,-0.19,0.101,0
54851,20090907,-81.78,40.37,0.182,0.12,0,0.185,0.205,0.16,0,0.19,0.215,-0.06,0.095,0,0.266,-0.25,0.232,0,0.182,-0.56,1,0,0.193,0.15,0,0.208,0.21,-0.26,0.244,0
54851,20090908,-81.78,40.37,0.181,0.14,0.012,0.113,0.202,0.15,0,0.113,0.21,-0.09,0.173,0.03,0.266,-0.25,0.31,0,0.182,-0.58,1,0,0.192,0.15,0,0.137,0.208,-0.26,0.315,0
54851,20090909,-81.78,40.37,0.196,0.29,0.012,0.214,0.211,0.25,0,0.208,0.214,-0.05,0.173,0.161,0.266,-0.25,0.31,0,0.181,-0.6,1,0,0.203,0.27,0,0.214,0.214,-0.21,0.315,0
54851,20090910,-81.78,40.37,0.209,0.43,0.012,0.357,0.22,0.34,0,0.351,0.219,0,0.173,0.202,0.266,-0.25,0.304,0,0.181,-0.62,1,0,0.215,0.39,0,0.357,0.219,-0.15,0.315,0
54851,20090911,-81.78,40.37,0.22,0.54,0.012,0.5,0.228,0.43,0,0.494,0.223,0.05,0.173,0.202,0.266,-0.24,0.304,0,0.182,-0.64,1,0,0.224,0.49,0,0.5,0.224,-0.1,0.315,0
54851,20090912,-81.78,40.37,0.229,0.64,0.012,0.643,0.235,0.51,0,0.637,0.228,0.1,0.173,0.202,0.267,-0.24,0.262,0,0.182,-0.64,1,0,0.232,0.58,0,0.643,0.228,-0.06,0.315,0
54851,20090913,-81.78,40.37,0.237,0.71,0.012,0.708,0.242,0.57,0,0.69,0.232,0.15,0.173,0.202,0.267,-0.23,0.19,0,0.182,-0.64,1,0,0.24,0.65,0,0.726,0.232,-0.02,0.214,0
54851,20090914,-81.78,40.37,0.245,0.78,0.012,0.708,0.248,0.63,0,0.69,0.236,0.19,0.077,0.202,0.267,-0.22,0.077,0,0.182,-0.63,1,0,0.247,0.72,0,0.726,0.236,0.01,0.071,0
54851,20090915,-81.78,40.37,0.236,0.68,0,0.637,0.244,0.57,0,0.625,0.235,0.18,0,0.173,0.267,-0.22,0,0,0.182,-0.61,1,0,0.24,0.64,0,0.655,0.233,-0.02,0,0
54851,20090916,-81.78,40.37,0.215,0.45,0,0.494,0.228,0.41,0,0.482,0.227,0.08,0,0.042,0.267,-0.22,0,0,0.182,-0.6,1,0,0.221,0.45,0,0.512,0.224,-0.11,0.03,0
54851,20090917,-81.78,40.37,0.195,0.24,0,0.351,0.213,0.25,0,0.339,0.218,-0.01,0.125,0,0.267,-0.22,0,0,0.183,-0.59,1,0,0.204,0.26,0,0.369,0.215,-0.19,0.173,0
54851,20090918,-81.78,40.37,0.179,0.07,0.095,0.208,0.2,0.1,0.071,0.196,0.21,-0.11,0.268,0,0.266,-0.23,0.083,0,0.183,-0.57,1,0,0.19,0.1,0.089,0.226,0.208,-0.28,0.315,0
54851,20090919,-81.78,40.37,0.166,-0.07,0.238,0.065,0.189,-0.03,0.214,0.054,0.202,-0.21,0.411,0,0.266,-0.24,0.214,0,0.183,-0.56,1,0,0.177,-0.03,0.232,0.083,0.201,-0.35,0.458,0
54851,20090920,-81.78,40.37,0.154,-0.2,0.381,0,0.178,-0.14,0.357,0,0.195,-0.29,0.554,0,0.265,-0.25,0.357,0,0.183,-0.55,1,0,0.166,-0.16,0.375,0,0.195,-0.43,0.601,0
54851,20090921,-81.78,40.37,0.144,-0.31,0.524,0,0.169,-0.25,0.5,0,0.188,-0.37,0.696,0,0.264,-0.26,0.5,0,0.182,-0.54,1,0,0.156,-0.27,0.518,0,0.19,-0.5,0.744,0
54851,20090922,-81.78,40.37,0.138,-0.38,0.667,0,0.161,-0.34,0.643,0,0.183,-0.44,0.839,0,0.263,-0.27,0.643,0,0.182,-0.53,1,0,0.15,-0.35,0.661,0,0.186,-0.55,0.887,0
54851,20090923,-81.78,40.37,0.144,-0.35,0.679,0,0.155,-0.41,0.786,0,0.179,-0.49,0.982,0,0.263,-0.28,0.786,0,0.182,-0.53,1,0,0.149,-0.38,0.69,0,0.184,-0.57,1,0
54851,20090924,-81.78,40.37,0.151,-0.31,0.679,0,0.151,-0.47,0.929,0,0.176,-0.53,1,0,0.262,-0.29,0.929,0,0.182,-0.53,1,0,0.151,-0.39,0.821,0,0.184,-0.59,1,0
54851,20090925,-81.78,40.37,0.157,-0.27,0.583,0,0.148,-0.51,1,0,0.174,-0.56,1,0,0.262,-0.3,0.988,0,0.182,-0.54,1,0,0.153,-0.41,0.875,0,0.185,-0.59,1,0
54851,20090926,-81.78,40.37,0.165,-0.22,0.44,0,0.147,-0.55,1,0,0.172,-0.58,1,0,0.262,-0.3,1,0,0.182,-0.54,1,0,0.156,-0.41,0.875,0,0.186,-0.59,1,0
54851,20090927,-81.78,40.37,0.193,0.03,0.298,0.119,0.164,-0.43,0.881,0.113,0.18,-0.5,0.893,0.036,0.262,-0.3,0.97,0,0.181,-0.55,1,0,0.179,-0.22,0.756,0.119,0.196,-0.49,0.881,0.036
54851,20090928,-81.78,40.37,0.227,0.34,0.155,0.262,0.19,-0.21,0.738,0.256,0.197,-0.32,0.75,0.179,0.266,-0.28,0.827,0,0.182,-0.55,1,0,0.209,0.04,0.613,0.262,0.212,-0.34,0.738,0.083
54851,20090929,-81.78,40.37,0.258,0.61,0.012,0.405,0.217,0.01,0.595,0.399,0.214,-0.13,0.607,0.321,0.27,-0.24,0.685,0,0.182,-0.56,1,0,0.237,0.29,0.47,0.405,0.228,-0.2,0.595,0.113
54851,20090930,-81.78,40.37,0.275,0.76,0,0.548,0.241,0.21,0.452,0.542,0.231,0.04,0.464,0.464,0.274,-0.2,0.542,0,0.182,-0.56,1,0,0.258,0.47,0.44,0.548,0.241,-0.09,0.452,0.113
54851,20091001,-81.78,40.37,0.292,0.9,0,0.69,0.264,0.4,0.31,0.685,0.247,0.21,0.321,0.607,0.279,-0.16,0.399,0,0.182,-0.56,1,0,0.278,0.65,0.31,0.69,0.253,0.03,0.31,0.113
54851,20091002,-81.78,40.37,0.309,1.04,0,0.833,0.286,0.58,0.167,0.827,0.263,0.38,0.179,0.75,0.284,-0.11,0.256,0,0.182,-0.57,1,0,0.297,0.81,0.167,0.833,0.265,0.13,0.167,0.113
54851,20091003,-81.78,40.37,0.335,1.25,0,0.976,0.314,0.81,0.024,0.97,0.282,0.6,0.036,0.893,0.29,-0.05,0.113,0,0.182,-0.58,1,0,0.325,1.05,0.024,0.976,0.281,0.28,0.024,0.25
54851,20091004,-81.78,40.37,0.338,1.23,0,1,0.322,0.87,0,1,0.295,0.73,0,1,0.297,0,0,0,0.185,-0.56,0.988,0,0.33,1.07,0,1,0.288,0.33,0,0.351
54851,20091005,-81.78,40.37,0.333,1.13,0,1,0.319,0.83,0,1,0.3,0.76,0,1,0.303,0.02,0,0,0.193,-0.52,0.845,0,0.326,1,0,1,0.29,0.34,0,0.435
54851,20091006,-81.78,40.37,0.331,1.04,0,1,0.315,0.77,0,1,0.302,0.77,0,1,0.308,0.04,0,0,0.207,-0.44,0.702,0,0.323,0.93,0,1,0.293,0.35,0,0.506
54851,20091007,-81.78,40.37,0.331,0.98,0,1,0.312,0.72,0,1,0.305,0.77,0,1,0.314,0.06,0,0,0.222,-0.35,0.56,0,0.321,0.87,0,1,0.297,0.36,0,0.506
54851,20091008,-81.78,40.37,0.33,0.92,0,1,0.308,0.67,0,1,0.307,0.75,0,1,0.319,0.08,0,0,0.236,-0.27,0.417,0,0.319,0.81,0,1,0.3,0.36,0,0.506
54851,20091009,-81.78,40.37,0.335,0.9,0,1,0.306,0.63,0,0.923,0.31,0.74,0,1,0.324,0.1,0,0,0.249,-0.18,0.274,0,0.32,0.78,0,1,0.305,0.37,0,0.524
54851,20091010,-81.78,40.37,0.338,0.86,0,1,0.302,0.58,0,0.923,0.31,0.7,0,1,0.328,0.11,0,0,0.262,-0.1,0.131,0,0.32,0.73,0,1,0.308,0.37,0,0.53
54851,20091011,-81.78,40.37,0.343,0.86,0,1,0.302,0.55,0,0.923,0.311,0.64,0,1,0.332,0.12,0,0,0.273,-0.03,0,0,0.323,0.72,0,1,0.312,0.36,0,0.536
54851,20091012,-81.78,40.37,0.349,0.86,0,1,0.301,0.52,0,0.923,0.311,0.6,0,1,0.335,0.15,0,0,0.278,0.01,0,0,0.325,0.7,0,1,0.315,0.36,0,0.476
54851,20091013,-81.78,40.37,0.352,0.84,0,1,0.302,0.5,0,0.923,0.312,0.56,0,1,0.337,0.17,0,0,0.279,0.02,0,0,0.327,0.69,0,1,0.316,0.34,0,0.375
54851,20091014,-81.78,40.37,0.353,0.8,0,1,0.303,0.49,0,0.875,0.313,0.54,0,1,0.339,0.18,0,0,0.279,0.02,0,0,0.328,0.66,0,1,0.317,0.32,0,0.375
54851,20091015,-81.78,40.37,0.36,0.81,0,1,0.306,0.48,0,0.827,0.314,0.53,0,1,0.341,0.19,0,0,0.279,0.02,0,0,0.333,0.67,0,1,0.32,0.32,0,0.375
54851,20091016,-81.78,40.37,0.369,0.84,0,1,0.312,0.51,0,0.905,0.318,0.53,0,1,0.343,0.2,0,0,0.28,0.02,0,0,0.341,0.69,0,1,0.324,0.34,0,0.494
54851,20091017,-81.78,40.37,0.367,0.79,0,1,0.312,0.48,0,0.905,0.32,0.52,0,1,0.345,0.21,0,0,0.284,0.04,0,0,0.34,0.65,0,1,0.326,0.33,0,0.494
54851,20091018,-81.78,40.37,0.365,0.75,0,1,0.312,0.44,0,0.857,0.32,0.49,0,1,0.347,0.21,0,0.012,0.293,0.09,0,0,0.338,0.61,0,1,0.327,0.32,0,0.494
54851,20091019,-81.78,40.37,0.364,0.72,0,1,0.311,0.41,0,0.714,0.32,0.47,0,0.97,0.348,0.21,0,0.018,0.302,0.13,0,0,0.338,0.57,0,1,0.329,0.32,0,0.494
54851,20091020,-81.78,40.37,0.363,0.69,0,1,0.311,0.38,0,0.571,0.32,0.45,0,0.845,0.349,0.21,0,0.018,0.31,0.18,0,0,0.337,0.55,0,0.905,0.331,0.31,0,0.494
54851,20091021,-81.78,40.37,0.363,0.67,0,0.921,0.312,0.35,0,0.488,0.32,0.42,0,0.72,0.35,0.21,0,0.018,0.312,0.18,0,0,0.337,0.52,0,0.78,0.331,0.3,0,0.506
54851,20091022,-81.78,40.37,0.354,0.59,0,0.774,0.311,0.31,0,0.39,0.32,0.4,0,0.573,0.35,0.2,0,0.018,0.309,0.16,0,0,0.333,0.46,0,0.634,0.329,0.27,0,0.506
54851,20091023,-81.78,40.37,0.339,0.48,0,0.628,0.307,0.25,0,0.244,0.318,0.34,0,0.427,0.349,0.19,0,0.018,0.307,0.15,0,0,0.323,0.37,0,0.488,0.324,0.21,0,0.366
54851,20091024,-81.78,40.37,0.339,0.46,0,0.591,0.309,0.25,0,0.195,0.318,0.32,0,0.36,0.35,0.19,0,0.061,0.302,0.11,0,0,0.324,0.36,0,0.451,0.324,0.19,0,0.305
54851,20091025,-81.78,40.37,0.341,0.45,0,0.591,0.313,0.26,0,0.244,0.321,0.32,0,0.36,0.352,0.21,0,0.195,0.292,0.06,0,0,0.327,0.36,0,0.451,0.324,0.19,0,0.256
54851,20091026,-81.78,40.37,0.341,0.44,0,0.591,0.317,0.26,0,0.384,0.324,0.32,0,0.39,0.356,0.25,0,0.335,0.283,0,0,0,0.329,0.35,0,0.451,0.324,0.18,0,0.183
54851,20091027,-81.78,40.37,0.341,0.42,0,0.591,0.32,0.27,0,0.402,0.327,0.32,0,0.518,0.36,0.29,0,0.482,0.274,-0.07,0,0,0.33,0.35,0,0.524,0.324,0.17,0,0.183
54851,20091028,-81.78,40.37,0.345,0.44,0,0.655,0.324,0.29,0,0.429,0.331,0.33,0,0.649,0.364,0.33,0,0.613,0.272,-0.1,0,0,0.334,0.37,0,0.565,0.327,0.19,0,0.208
54851,20091029,-81.78,40.37,0.356,0.5,0,0.798,0.331,0.34,0,0.571,0.339,0.39,0,0.792,0.372,0.41,0,0.756,0.274,-0.13,0,0,0.344,0.43,0,0.708,0.335,0.24,0,0.351
54851,20091030,-81.78,40.37,0.367,0.57,0,0.94,0.338,0.38,0,0.714,0.346,0.44,0,0.935,0.38,0.49,0,0.899,0.277,-0.16,0,0,0.352,0.49,0,0.851,0.341,0.29,0,0.494
54851,20091031,-81.78,40.37,0.364,0.56,0,0.976,0.337,0.37,0,0.762,0.348,0.45,0,1,0.386,0.56,0,1,0.281,-0.18,0,0,0.35,0.48,0,0.887,0.343,0.3,0,0.554
54851,20091101,-81.78,40.37,0.367,0.61,0,0.976,0.34,0.4,0,0.762,0.356,0.52,0,1,0.393,0.63,0,1,0.293,-0.16,0,0.006,0.353,0.51,0,0.887,0.349,0.35,0,0.601
54851,20091102,-81.78,40.37,0.369,0.65,0,0.976,0.341,0.42,0,0.768,0.36,0.56,0,1,0.398,0.67,0,1,0.318,-0.05,0,0.149,0.355,0.54,0,0.887,0.357,0.41,0,0.744
54851,20091103,-81.78,40.37,0.372,0.71,0,0.976,0.343,0.44,0,0.893,0.364,0.59,0,1,0.403,0.71,0,1,0.346,0.07,0,0.292,0.358,0.58,0,0.911,0.366,0.48,0,0.887
54851,20091104,-81.78,40.37,0.373,0.74,0,1,0.343,0.44,0,1,0.365,0.6,0,1,0.408,0.74,0,1,0.375,0.21,0,0.435,0.358,0.6,0,1,0.372,0.54,0,1
54851,20091105,-81.78,40.37,0.368,0.75,0,1,0.339,0.41,0,1,0.361,0.57,0,1,0.409,0.74,0,1,0.403,0.37,0,0.577,0.353,0.58,0,1,0.376,0.58,0,1
54851,20091106,-81.78,40.37,0.364,0.75,0,1,0.337,0.4,0,1,0.36,0.56,0,1,0.411,0.73,0,1,0.43,0.52,0,0.72,0.35,0.57,0,1,0.38,0.61,0,1
54851,20091107,-81.78,40.37,0.36,0.74,0,1,0.335,0.38,0,0.952,0.358,0.55,0,1,0.412,0.72,0,1,0.455,0.65,0,0.863,0.347,0.56,0,1,0.384,0.64,0,1
54851,20091108,-81.78,40.37,0.349,0.66,0,1,0.328,0.32,0,0.815,0.349,0.47,0,1,0.41,0.68,0,1,0.472,0.75,0,1,0.338,0.49,0,0.976,0.382,0.62,0,1
54851,20091109,-81.78,40.37,0.339,0.58,0,0.911,0.323,0.26,0,0.673,0.343,0.41,0,1,0.408,0.64,0,1,0.474,0.75,0,1,0.331,0.42,0,0.851,0.377,0.57,0,1
54851,20091110,-81.78,40.37,0.331,0.5,0,0.768,0.318,0.21,0,0.53,0.338,0.36,0,1,0.405,0.6,0,1,0.475,0.73,0,1,0.324,0.36,0,0.708,0.373,0.52,0,1
54851,20091111,-81.78,40.37,0.323,0.42,0,0.625,0.313,0.16,0,0.387,0.334,0.32,0,0.958,0.402,0.56,0,1,0.474,0.69,0,1,0.318,0.3,0,0.565,0.369,0.48,0,1
54851,20091112,-81.78,40.37,0.315,0.33,0,0.482,0.309,0.11,0,0.244,0.33,0.27,0,0.815,0.399,0.52,0,1,0.474,0.66,0,1,0.312,0.23,0,0.423,0.365,0.43,0,1
54851,20091113,-81.78,40.37,0.307,0.23,0,0.339,0.304,0.04,0,0.101,0.326,0.23,0,0.673,0.397,0.49,0,1,0.473,0.63,0,1,0.305,0.15,0,0.28,0.361,0.39,0,1
54851,20091114,-81.78,40.37,0.299,0.14,0,0.196,0.299,-0.03,0,0.006,0.323,0.18,0,0.53,0.394,0.44,0,1,0.473,0.59,0,1,0.299,0.06,0,0.137,0.357,0.34,0,1
54851,20091115,-81.78,40.37,0.292,0.05,0,0.054,0.295,-0.1,0,0,0.319,0.14,0,0.387,0.391,0.41,0,1,0.473,0.56,0,1,0.293,-0.02,0,0.018,0.354,0.3,0,1
54851,20091116,-81.78,40.37,0.287,-0.02,0,0,0.291,-0.16,0.018,0,0.316,0.1,0,0.244,0.389,0.38,0,1,0.472,0.52,0,1,0.289,-0.09,0,0,0.351,0.27,0,0.952
54851,20091117,-81.78,40.37,0.281,-0.1,0,0,0.287,-0.24,0.155,0,0.313,0.05,0,0.101,0.387,0.37,0,1,0.472,0.51,0,1,0.284,-0.17,0.012,0,0.348,0.24,0,0.81
54851,20091118,-81.78,40.37,0.274,-0.19,0,0,0.282,-0.32,0.298,0,0.31,0,0,0,0.386,0.35,0,1,0.471,0.5,0,1,0.278,-0.26,0.143,0,0.344,0.2,0,0.667
54851,20091119,-81.78,40.37,0.278,-0.17,0,0.065,0.282,-0.33,0.375,0.06,0.307,-0.05,0,0,0.384,0.34,0,1,0.47,0.49,0,1,0.28,-0.25,0.214,0.065,0.344,0.18,0,0.589
54851,20091120,-81.78,40.37,0.291,-0.05,0,0.208,0.287,-0.27,0.375,0.185,0.307,-0.06,0,0,0.382,0.32,0,1,0.468,0.48,0,1,0.289,-0.16,0.214,0.208,0.347,0.19,0,0.589
54851,20091121,-81.78,40.37,0.302,0.04,0,0.351,0.292,-0.22,0.375,0.185,0.308,-0.07,0,0,0.381,0.31,0,1,0.466,0.47,0,1,0.297,-0.08,0.214,0.351,0.35,0.2,0,0.589
54851,20091122,-81.78,40.37,0.312,0.12,0,0.494,0.297,-0.17,0.375,0.185,0.31,-0.06,0,0,0.38,0.3,0,1,0.464,0.47,0,1,0.305,-0.01,0.214,0.429,0.353,0.2,0,0.589
54851,20091123,-81.78,40.37,0.321,0.19,0,0.601,0.301,-0.12,0.357,0.185,0.311,-0.06,0,0,0.38,0.29,0,1,0.462,0.46,0,1,0.311,0.05,0.214,0.429,0.355,0.2,0,0.554
54851,20091124,-81.78,40.37,0.331,0.27,0,0.667,0.306,-0.07,0.22,0.185,0.313,-0.06,0,0,0.379,0.29,0,1,0.461,0.46,0,1,0.318,0.12,0.202,0.429,0.358,0.2,0,0.554
54851,20091125,-81.78,40.37,0.343,0.36,0,0.792,0.312,0,0.077,0.185,0.315,-0.04,0,0,0.378,0.28,0,1,0.459,0.45,0,1,0.327,0.19,0.071,0.429,0.361,0.2,0,0.554
54851,20091126,-81.78,40.37,0.346,0.36,0,0.815,0.314,0.01,0,0.125,0.318,-0.02,0,0,0.378,0.26,0,0.958,0.458,0.44,0,1,0.33,0.2,0,0.363,0.363,0.19,0,0.488
54851,20091127,-81.78,40.37,0.339,0.27,0,0.673,0.311,-0.05,0,0,0.318,-0.04,0,0,0.378,0.23,0,0.815,0.458,0.43,0,1,0.325,0.11,0,0.22,0.361,0.14,0,0.345
54851,20091128,-81.78,40.37,0.335,0.2,0,0.53,0.31,-0.11,0,0,0.317,-0.07,0,0,0.378,0.19,0,0.673,0.457,0.42,0,1,0.322,0.05,0,0.077,0.359,0.11,0,0.202
54851,20091129,-81.78,40.37,0.332,0.14,0,0.387,0.308,-0.16,0.077,0,0.317,-0.11,0,0,0.378,0.14,0,0.53,0.457,0.39,0,1,0.32,0,0,0,0.358,0.08,0,0.06
54851,20091130,-81.78,40.37,0.331,0.1,0,0.286,0.307,-0.2,0.214,0,0.316,-0.15,0.048,0,0.377,0.1,0,0.387,0.456,0.35,0,1,0.319,-0.04,0,0,0.358,0.05,0,0
54851,20091201,-81.78,40.37,0.337,0.11,0,0.298,0.31,-0.22,0.214,0,0.316,-0.19,0.107,0,0.377,0.05,0,0.244,0.455,0.31,0,0.988,0.323,-0.04,0,0,0.359,0.04,0,0
54851,20091202,-81.78,40.37,0.339,0.09,0,0.173,0.311,-0.24,0.232,0,0.316,-0.23,0.226,0,0.376,-0.01,0,0.101,0.455,0.26,0,0.845,0.325,-0.06,0,0,0.359,0.02,0,0
54851,20091203,-81.78,40.37,0.347,0.11,0,0.179,0.316,-0.23,0.268,0,0.32,-0.23,0.28,0,0.376,-0.06,0,0,0.454,0.21,0,0.702,0.331,-0.04,0,0.095,0.363,0.02,0,0
54851,20091204,-81.78,40.37,0.355,0.15,0,0.321,0.321,-0.2,0.268,0,0.328,-0.21,0.28,0,0.378,-0.07,0,0,0.454,0.16,0,0.56,0.338,0,0,0.137,0.367,0.03,0,0.006
54851,20091205,-81.78,40.37,0.362,0.19,0,0.369,0.326,-0.18,0.268,0,0.334,-0.2,0.28,0,0.38,-0.07,0,0,0.455,0.11,0,0.417,0.344,0.04,0,0.137,0.372,0.04,0,0.006
54851,20091206,-81.78,40.37,0.368,0.23,0,0.369,0.33,-0.16,0.19,0,0.339,-0.19,0.28,0,0.382,-0.07,0,0,0.456,0.09,0,0.274,0.349,0.06,0,0.137,0.375,0.04,0,0.006
54851,20091207,-81.78,40.37,0.372,0.24,0,0.363,0.334,-0.14,0.06,0,0.344,-0.19,0.292,0,0.385,-0.08,0,0,0.458,0.07,0,0.131,0.353,0.07,0,0.137,0.379,0.04,0,0.006
54851,20091208,-81.78,40.37,0.37,0.21,0,0.286,0.334,-0.17,0.161,0,0.348,-0.2,0.369,0,0.387,-0.09,0,0,0.459,0.07,0,0,0.352,0.03,0,0.137,0.38,0.01,0,0.006
54851,20091209,-81.78,40.37,0.376,0.26,0,0.345,0.34,-0.12,0.226,0.042,0.354,-0.18,0.339,0.012,0.389,-0.09,0,0,0.46,0.07,0,0,0.358,0.08,0,0.196,0.384,0.02,0,0.054
54851,20091210,-81.78,40.37,0.382,0.34,0,0.393,0.35,0.03,0.19,0.185,0.362,-0.12,0.286,0.054,0.392,-0.08,0,0,0.462,0.08,0,0,0.366,0.19,0,0.244,0.39,0.08,0,0.196